"Pseudo-MPEC" for P12payR

Created 2026 Aug 12 1:35:19 UT using Find_Orb

Click here for an explanation of pseudo-MPECs

 
 Astrometry: 
     P12payR*0C2026 08 11.49039122 08 47.348+03 01 45.98   ~8BEo 20.38wXNEOCPF51
     P12payR 0C2026 08 11.50430922 09 02.307+03 00 37.06   ~8BEo 20.49wXNEOCPF51
     P12payR 0C2026 08 11.53115022 09 31.371+02 58 22.97   ~8BEo 20.39wXNEOCPF51
     P12payR 0C2026 08 11.61904022 11 07.342+02 51 02.73   ~8BKZ 20.33GVNEOCPF51
     P12payR 0C2026 08 11.61968822 11 08.085+02 50 59.43   ~8BKZ 20.39GVNEOCPF51
     P12payR KB2026 08 11.92444422 17 12.97 +02 24 31.4    ~8BMo 19.7 GXNEOCPI93
     P12payR KB2026 08 11.92862322 17 17.55 +02 24 11.2    ~8BMo 20.4 GXNEOCPI93
     P12payR KB2026 08 11.93236722 17 19.88 +02 23 51.1    ~8BN5 20.1 GVNEOCPL01
     P12payR KB2026 08 11.93273122 17 22.13 +02 23 50.5    ~8BMo 19.7 GXNEOCPI93
     P12payR KB2026 08 11.93486522 17 22.58 +02 23 39.2    ~8BN5 20.5 GVNEOCPL01
     P12payR IB2026 08 11.93736422 17 25.34 +02 23 26.0    ~8BN5 18.7 GVNEOCPL01
     P12payR KB2026 08 11.93977522 17 27.97 +02 23 13.9    ~8BN5 19.8 GVNEOCPL01
     P12payR KB2026 08 11.94206322 17 30.50 +02 23 02.5    ~8BN5 20.2 GVNEOCPL01
     P12payR 0C2026 08 12.02462322 19 02.904+02 15 54.76   ~8C1K 20.2 GWNEOCPJ95
     P12payR 0C2026 08 12.03404122 19 13.291+02 15 07.49   ~8C1K 20.2 GWNEOCPJ95
     P12payR 0C2026 08 12.04027822 19 20.088+02 14 36.28   ~8C1K 20.3 GWNEOCPJ95

Station data:
(F51) Pan-STARRS 1, Haleakala  (N20.707234 W156.255910)  US/Hawaii.
   Observers J. Herman, T. Lowe, P. Minguez, A. Schultz, I. Smith. Measurers
   K. Chambers, T. de Boer, J. Fairlamb, H. Gao, M. Huber, C.-C. Lin, E.
   Magnier, Y. Ramanjooloo, R. Wainscoat, R. Weryk. 1.8-m Ritchey-Chrétien +
   CCD.
(I93) St Pardon de Conques  (N44.558670 W0.202960)  France.  Observers F.
   Losse, W. D'Anna. Measurer F. Losse. 0.40-m f/3.7 reflector + CCD.
(J95) Great Shefford  (N51.474969 W1.447003)  UK/England.  Observer P.
   Birtwhistle. 0.41-m f/6.3 Schmidt-Cassegrain + CCD.
(L01) Višnjan Observatory, Tičan  (N45.290897 E13.749300)  Croatia.
   Observers K. Korlević, L. Poropat. Measurer K. Korlevic. 1.0-m f/2.9
   reflector + CCD.

Orbital elements:  P12payR
   Perihelion 2026 Aug 14.669299 +/- 0.0928 TT = 16:03:47.4 (JD 2461267.169299)
Epoch 2026 Aug 12.0 TT = JDT 2461264.5   Earth MOID: 0.0447      AutoNEOCP
M 359.126673868 +/- 0.031           (J2000 ecliptic)
n   0.327174355 +/- 0.00125         Peri.  178.493476 +/- 0.10
a   2.085850664 +/- 0.00532         Node   144.186819 +/- 0.006
e   0.49307414 +/- 0.00125          Incl.    6.937030 +/- 0.015
P   3.01248                H 25.78  G  0.15   U  8.3
q 1.057371624 +/- 9.49e-5    Q 3.114329704 +/- 0.0105
From 16 observations 2026 Aug. 11-12 (13.2 hr); mean residual 0".27
Residuals in arcseconds: 
260811 F51  .14+  .07-    260811 I93  .46-  .30+    260811 L01  .10+  .25-    
260811 F51  .52-  .24+    260811 L01  .35+  .15-    260812 J95  .18-  .03-    
260811 F51  .53+  .05-    260811 I93  .18+  .11+    260812 J95  .48+  .01-    
260811 F51  .28-  .05-    260811 L01  .27-  .44+    260812 J95  .28-  .11+    
260811 F51  .12+  .09-    260811 L01  .00   .26-    
260811 I93  .13+  .35-    260811 L01  .21-  .30-    

Ephemerides (geocentric):
Date (UTC) HH   RA             Dec           delta  r     elong  mag " sig PA
---- --------  ------------   ------------  ------ ------ -----  --- --------
2026 08 12 02  22 20 09.215   +02 13 18.50  .04771 1.0578 158.1 20.3 .322 164
2026 08 12 03  22 20 56.922   +02 09 49.01  .04771 1.0578 158.0 20.3 .351 160
2026 08 12 04  22 21 44.608   +02 06 19.39  .04772 1.0578 158.0 20.3 .383 156
2026 08 12 05  22 22 32.272   +02 02 49.66  .04773 1.0578 157.9 20.3 .420 152
2026 08 12 06  22 23 19.914   +01 59 19.82  .04773 1.0578 157.9 20.3 .459 149
2026 08 12 07  22 24 07.533   +01 55 49.89  .04774 1.0577 157.9 20.3 .502 146
2026 08 12 08  22 24 55.126   +01 52 19.87  .04775 1.0577 157.8 20.3 .547 143
2026 08 12 09  22 25 42.693   +01 48 49.77  .04776 1.0577 157.8 20.3 .596 141
2026 08 12 10  22 26 30.232   +01 45 19.61  .04777 1.0577 157.7 20.3 .648 138
2026 08 12 11  22 27 17.742   +01 41 49.38  .04778 1.0577 157.7 20.3 .702 136
2026 08 12 12  22 28 05.223   +01 38 19.10  .04779 1.0577 157.6 20.3 .760 135
2026 08 12 13  22 28 52.672   +01 34 48.77  .04781 1.0577 157.6 20.3 .820 133
2026 08 12 14  22 29 40.089   +01 31 18.42  .04782 1.0577 157.5 20.3 .883 132
2026 08 12 15  22 30 27.472   +01 27 48.03  .04783 1.0576 157.4 20.3 .948 130
2026 08 12 16  22 31 14.820   +01 24 17.63  .04785 1.0576 157.4 20.3 1.02 129
2026 08 12 17  22 32 02.132   +01 20 47.22  .04786 1.0576 157.3 20.4 1.09 128
2026 08 12 18  22 32 49.407   +01 17 16.81  .04788 1.0576 157.3 20.4 1.16 127
2026 08 12 19  22 33 36.643   +01 13 46.41  .04789 1.0576 157.2 20.4 1.24 126
2026 08 12 20  22 34 23.839   +01 10 16.02  .04791 1.0576 157.2 20.4 1.32 125
2026 08 12 21  22 35 10.995   +01 06 45.67  .04793 1.0576 157.1 20.4 1.40 125
2026 08 12 22  22 35 58.109   +01 03 15.34  .04795 1.0576 157.0 20.4 1.48 124
2026 08 12 23  22 36 45.180   +00 59 45.06  .04797 1.0576 157.0 20.4 1.57 123
2026 08 13 00  22 37 32.206   +00 56 14.83  .04799 1.0576 156.9 20.4 1.65 123
2026 08 13 01  22 38 19.187   +00 52 44.67  .04801 1.0575 156.8 20.4 1.74 122
2026 08 13 02  22 39 06.121   +00 49 14.57  .04803 1.0575 156.8 20.4 1.84 122
2026 08 13 03  22 39 53.007   +00 45 44.54  .04805 1.0575 156.7 20.4 1.93 121
2026 08 13 04  22 40 39.845   +00 42 14.61  .04807 1.0575 156.6 20.4 2.03 121
2026 08 13 05  22 41 26.632   +00 38 44.76  .04809 1.0575 156.6 20.4 2.13 120
2026 08 13 06  22 42 13.368   +00 35 15.02  .04812 1.0575 156.5 20.4 2.23 120
2026 08 13 07  22 43 00.052   +00 31 45.39  .04814 1.0575 156.4 20.4 2.34 119
2026 08 13 08  22 43 46.683   +00 28 15.88  .04816 1.0575 156.4 20.4 2.44 119
2026 08 13 09  22 44 33.259   +00 24 46.50  .04819 1.0575 156.3 20.4 2.55 119
2026 08 13 10  22 45 19.779   +00 21 17.25  .04822 1.0575 156.2 20.4 2.66 118
2026 08 13 11  22 46 06.243   +00 17 48.14  .04824 1.0575 156.1 20.4 2.78 118
2026 08 13 12  22 46 52.650   +00 14 19.19  .04827 1.0575 156.1 20.4 2.89 118
2026 08 13 13  22 47 38.997   +00 10 50.39  .04830 1.0575 156.0 20.4 3.01 117
2026 08 13 14  22 48 25.284   +00 07 21.77  .04833 1.0574 155.9 20.4 3.13 117
2026 08 13 15  22 49 11.511   +00 03 53.31  .04835 1.0574 155.8 20.4 3.25 117
2026 08 13 16  22 49 57.676   +00 00 25.04  .04838 1.0574 155.8 20.4 3.38 117
2026 08 13 17  22 50 43.778   -00 03 03.04  .04841 1.0574 155.7 20.4 3.50 116
2026 08 13 18  22 51 29.815   -00 06 30.92  .04845 1.0574 155.6 20.4 3.63 116
2026 08 13 19  22 52 15.788   -00 09 58.59  .04848 1.0574 155.5 20.4 3.76 116
2026 08 13 20  22 53 01.695   -00 13 26.05  .04851 1.0574 155.4 20.4 3.89 116
2026 08 13 21  22 53 47.535   -00 16 53.29  .04854 1.0574 155.4 20.4 4.03 115
2026 08 13 22  22 54 33.307   -00 20 20.30  .04858 1.0574 155.3 20.4 4.17 115
2026 08 13 23  22 55 19.009   -00 23 47.08  .04861 1.0574 155.2 20.4 4.30 115
2026 08 14 00  22 56 04.642   -00 27 13.61  .04864 1.0574 155.1 20.5 4.44 115
2026 08 14 01  22 56 50.204   -00 30 39.89  .04868 1.0574 155.0 20.5 4.59 115